Orbital Elements
Epoch 2025 May 5.0 TT = JDT 2460800.5
T 2024 Oct. 7.71551 TT Pike
q 1.6337873 (2000.0) P Q
z -0.0005979 Peri. 66.21578 -0.21841178 -0.30125607
+/-0.0000009 Node 79.18802 +0.07100848 -0.95354125
e 1.0009768 Incl. 70.90323 +0.97326979 +0.00196414
From 763 observations 2023 Oct. 13-2025 July 27, mean residual 0".7.
|